DW5078 Weather Reports


Display with metric or nautical units.
time (UTC)temp
F
wind
direction
speed
MPH
gust
MPH
rain 1hr
in
rain 24hr
in
rain mn
in
humidity
%
barometer
mb
20260509231112 84 38 0.0 3.0 0.00 0.00 0.00 63 1003.5
20260509230112 84 38 1.0 3.0 0.00 0.00 0.00 63 1003.5
20260509225112 84 38 0.0 4.0 0.00 0.00 0.00 65 1003.5
20260509224112 84 38 1.0 5.0 0.00 0.00 0.00 65 1003.4
20260509223112 84 39 3.0 5.0 0.00 0.00 0.00 65 1003.3
20260509222112 84 38 1.0 3.0 0.00 0.00 0.00 67 1003.3
20260509221112 84 38 2.0 5.0 0.00 0.00 0.00 67 1003.3
20260509220112 84 39 2.0 7.0 0.00 0.00 0.00 66 1003.3
20260509215112 85 38 1.0 5.0 0.00 0.00 0.00 67 1003.4
20260509214112 84 38 1.0 5.0 0.00 0.00 0.00 67 1003.4
20260509213112 84 38 2.0 5.0 0.00 0.00 0.00 67 1003.5
20260509212112 84 38 2.0 6.0 0.00 0.00 0.00 68 1003.7
20260509211112 84 38 2.0 7.0 0.00 0.00 0.00 67 1003.8
20260509210112 85 38 3.0 7.0 0.00 0.00 0.00 68 1003.9
20260509205112 85 38 1.0 5.0 0.00 0.00 0.00 66 1004.1
20260509204112 86 38 2.0 9.0 0.00 0.00 0.00 66 1004.2
20260509203112 87 40 2.0 6.0 0.00 0.00 0.00 64 1004.2
20260509202112 87 40 0.0 4.0 0.00 0.00 0.00 62 1004.2
20260509201112 87 40 1.0 5.0 0.00 0.00 0.00 61 1004.3
20260509200112 88 40 1.0 6.0 0.00 0.00 0.00 60 1004.5
20260509195112 89 40 0.0 1.0 0.00 0.00 0.00 59 1004.6
20260509194112 89 40 0.0 1.0 0.00 0.00 0.00 58 1004.6
20260509193112 88 40 0.0 3.0 0.00 0.00 0.00 59 1004.7
20260509192112 89 40 0.0 0.0 0.00 0.00 0.00 59 1004.8
20260509191112 88 40 0.0 1.0 0.00 0.00 0.00 62 1004.9
20260509190112 88 40 0.0 0.0 0.00 0.00 0.00 64 1005.0
20260509185112 87 40 0.0 2.0 0.00 0.00 0.00 63 1005.0
20260509184112 87 40 0.0 1.0 0.00 0.00 0.00 67 1005.2
20260509183112 88 40 0.0 1.0 0.00 0.00 0.00 63 1005.3
20260509182112 87 40 0.0 1.0 0.00 0.00 0.00 65 1005.3
20260509181112 86 40 0.0 3.0 0.00 0.00 0.00 67 1005.5
20260509180112 87 40 0.0 1.0 0.00 0.00 0.00 67 1005.6
20260509175112 86 40 0.0 1.0 0.00 0.00 0.00 67 1005.8
20260509174112 86 40 0.0 0.0 0.00 0.00 0.00 67 1005.9
20260509173112 85 40 0.0 0.0 0.00 0.00 0.00 69 1006.0
20260509172112 84 40 0.0 1.0 0.00 0.00 0.00 71 1006.1
20260509171112 84 40 0.0 1.0 0.00 0.00 0.00 70 1006.2
20260509170112 83 40 0.0 1.0 0.00 0.00 0.00 72 1006.2
20260509165112 84 40 0.0 0.0 0.00 0.00 0.00 69 1006.2
20260509164112 84 40 0.0 0.0 0.00 0.00 0.00 71 1006.2
20260509163112 82 40 0.0 0.0 0.00 0.00 0.00 73 1006.3
20260509162112 81 40 0.0 0.0 0.00 0.00 0.00 77 1006.2
20260509161111 79 307 0.0 0.0 0.00 0.00 0.00 80 1006.3
20260509160111 78 308 0.0 2.0 0.00 0.00 0.00 81 1006.3
20260509155111 76 308 1.0 2.0 0.00 0.00 0.00 83 1006.3
20260509154111 75 307 1.0 1.0 0.00 0.00 0.00 84 1006.3
20260509153111 74 307 0.0 1.0 0.00 0.00 0.00 85 1006.4
20260509152111 74 307 0.0 1.0 0.00 0.00 0.00 86 1006.3
20260509151111 73 307 0.0 2.0 0.00 0.00 0.00 88 1006.4
20260509150111 72 307 0.0 1.0 0.00 0.00 0.00 89 1006.3
20260509145111 72 308 1.0 2.0 0.00 0.00 0.00 89 1006.4
20260509144111 72 308 1.0 1.0 0.00 0.00 0.00 89 1006.4
20260509143111 72 307 0.0 3.0 0.00 0.00 0.00 89 1006.3
20260509142111 72 307 1.0 3.0 0.00 0.00 0.00 88 1006.1
20260509141111 72 307 0.0 2.0 0.00 0.00 0.00 89 1006.1
20260509140111 72 307 0.0 3.0 0.00 0.00 0.00 91 1006.0
20260509135111 71 308 1.0 2.0 0.00 0.00 0.00 91 1006.0
20260509134111 71 308 0.0 1.0 0.00 0.00 0.00 92 1005.9
20260509133111 71 307 0.0 1.0 0.00 0.00 0.00 93 1005.8
20260509132111 70 307 0.0 1.0 0.00 0.00 0.00 93 1005.7
20260509131111 71 307 2.0 2.0 0.00 0.00 0.00 93 1005.8
20260509130111 71 307 0.0 1.0 0.00 0.00 0.00 93 1005.8
20260509125111 71 308 0.0 1.0 0.00 0.00 0.00 94 1005.6
20260509124111 70 307 0.0 1.0 0.00 0.00 0.00 95 1005.6
20260509123111 69 307 0.0 0.0 0.00 0.00 0.00 96 1005.7
20260509122111 68 308 0.0 0.0 0.00 0.00 0.00 96 1005.6
20260509121111 68 308 0.0 0.0 0.00 0.00 0.00 93 1005.6
20260509120111 68 308 0.0 0.0 0.00 0.00 0.00 93 1005.5
20260509115111 68 308 0.0 0.0 0.00 0.00 0.00 93 1005.4
20260509114111 68 308 0.0 0.0 0.00 0.00 0.00 93 1005.1
20260509113111 68 308 0.0 0.0 0.00 0.00 0.00 93 1005.0
20260509112111 68 308 0.0 0.0 0.00 0.00 0.00 93 1004.7
20260509111111 68 308 0.0 0.0 0.00 0.00 0.00 93 1004.6
20260509110111 68 308 0.0 0.0 0.00 0.00 0.00 93 1004.4
20260509105111 68 308 0.0 0.0 0.00 0.00 0.00 93 1004.3
20260509104111 68 308 0.0 0.0 0.00 0.00 0.00 93 1004.3
20260509103111 68 308 0.0 0.0 0.00 0.00 0.00 93 1004.2
20260509102111 68 308 0.0 0.0 0.00 0.00 0.00 93 1004.2
20260509101111 68 308 0.0 0.0 0.00 0.00 0.00 93 1004.1
20260509100111 68 308 0.0 0.0 0.00 0.00 0.00 93 1004.2
20260509095111 68 308 0.0 0.0 0.00 0.00 0.00 93 1004.0
20260509094111 68 308 0.0 0.0 0.00 0.00 0.00 93 1004.0
20260509093111 68 308 0.0 0.0 0.00 0.00 0.00 93 1004.2
20260509092111 69 307 0.0 0.0 0.00 0.00 0.00 94 1004.1
20260509091111 69 308 0.0 2.0 0.00 0.00 0.00 94 1003.9
20260509090111 70 307 2.0 5.0 0.00 0.00 0.00 93 1002.9
20260509085111 70 307 2.0 6.0 0.00 0.00 0.00 93 1002.7
20260509084111 70 307 2.0 6.0 0.00 0.00 0.00 93 1002.9
20260509083111 70 308 1.0 7.0 0.00 0.00 0.00 93 1003.0
20260509082111 70 308 2.0 5.0 0.00 0.00 0.00 93 1003.4
20260509081111 70 307 3.0 4.0 0.00 0.00 0.00 93 1003.6
20260509080111 70 308 1.0 2.0 0.00 0.00 0.00 92 1004.3
20260509075111 70 307 0.0 3.0 0.00 0.00 0.00 92 1004.6
20260509074111 70 308 1.0 2.0 0.00 0.00 0.00 92 1005.0
20260509073110 70 307 0.0 1.0 0.00 0.00 0.00 92 1005.3
20260509072110 70 307 0.0 1.0 0.00 0.00 0.00 91 1005.5
20260509071110 70 307 0.0 2.0 0.00 0.00 0.00 91 1005.6
20260509070110 70 308 0.0 1.0 0.00 0.00 0.00 92 1005.7
20260509065110 70 308 0.0 1.0 0.00 0.00 0.00 91 1005.8
20260509064110 70 307 0.0 1.0 0.00 0.00 0.00 91 1005.8
20260509063110 70 308 0.0 1.0 0.00 0.00 0.00 90 1005.3
20260509062110 70 308 0.0 1.0 0.00 0.00 0.00 90 1005.3
20260509061110 70 308 0.0 1.0 0.00 0.00 0.00 90 1005.5
20260509060110 70 308 0.0 2.0 0.00 0.00 0.00 89 1005.3
20260509055110 70 308 0.0 1.0 0.00 0.00 0.00 88 1005.4
20260509054110 70 308 0.0 1.0 0.00 0.00 0.00 88 1006.1
20260509053110 71 307 0.0 0.0 0.00 0.00 0.00 87 1006.3
20260509052110 70 308 0.0 1.0 0.00 0.00 0.00 87 1006.1
20260509051110 70 308 0.0 1.0 0.00 0.00 0.00 88 1006.8
20260509050110 70 308 0.0 1.0 0.00 0.00 0.00 87 1007.1
20260509045110 71 307 0.0 1.0 0.00 0.00 0.00 86 1005.8
20260509044110 71 307 0.0 1.0 0.00 0.00 0.00 86 1005.3
20260509043110 71 308 0.0 2.0 0.00 0.00 0.00 85 1005.4
20260509042110 71 308 0.0 5.0 0.00 0.00 0.00 85 1005.1
20260509041110 71 308 3.0 3.0 0.00 0.00 0.00 85 1005.4
20260509040110 71 307 0.0 4.0 0.00 0.00 0.00 85 1005.1
20260509035110 72 307 2.0 3.0 0.00 0.00 0.00 85 1005.4
20260509034110 72 308 1.0 3.0 0.00 0.00 0.00 84 1005.8
20260509033110 72 307 0.0 0.0 0.00 0.00 0.00 84 1006.5
20260509032110 72 307 0.0 1.0 0.00 0.00 0.00 84 1005.9
20260509031110 72 307 0.0 2.0 0.00 0.00 0.00 84 1005.6
20260509030110 72 307 1.0 2.0 0.00 0.00 0.00 84 1005.7
20260509025110 72 308 0.0 2.0 0.00 0.00 0.00 83 1005.6
20260509024110 72 307 1.0 2.0 0.00 0.00 0.00 83 1005.3
20260509023110 72 308 0.0 2.0 0.00 0.00 0.00 83 1004.9
20260509022110 72 307 0.0 4.0 0.00 0.00 0.00 83 1004.3
20260509021110 72 308 2.0 4.0 0.00 0.00 0.00 83 1004.3
20260509020110 72 307 2.0 3.0 0.00 0.00 0.00 82 1004.5
20260509015110 72 308 1.0 4.0 0.00 0.00 0.00 82 1004.2
20260509014110 72 307 2.0 3.0 0.00 0.00 0.00 81 1004.1
20260509013110 73 308 0.0 1.0 0.00 0.00 0.00 81 1004.1
20260509012110 73 307 0.0 2.0 0.00 0.00 0.00 80 1004.2
20260509011110 73 307 0.0 1.0 0.00 0.00 0.00 79 1004.2
20260509010110 73 308 0.0 2.0 0.00 0.00 0.00 79 1004.2
20260509005110 73 308 1.0 2.0 0.00 0.00 0.00 78 1004.1
20260509004110 73 307 1.0 4.0 0.00 0.00 0.00 78 1003.7
20260509003110 74 308 2.0 6.0 0.00 0.00 0.00 78 1003.6
20260509002110 74 307 4.0 6.0 0.00 0.00 0.00 77 1003.6
20260509001110 74 307 1.0 5.0 0.00 0.00 0.00 76 1003.6
20260509000110 75 308 3.0 5.0 0.00 0.00 0.00 76 1003.7
20260508235110 75 308 1.0 4.0 0.00 0.00 0.00 74 1003.8
20260508234110 75 308 1.0 3.0 0.00 0.00 0.00 74 1004.0
20260508233110 76 307 0.0 3.0 0.00 0.00 0.00 74 1004.1
20260508232110 76 308 3.0 5.0 0.00 0.00 0.00 73 1004.2